Regional Weather Roundup
Issued by NWS Sioux Falls, SD

Home | Current Version | Previous Version | Graphics & Text | Print | Product List | Glossary Off
Versions: 1 2 3 4 5 6 7 8 9 10 11 12 13 14 15 16 17 18 19 20 21 22 23 24 25 26 27 28 29 30 31 32 33 34 35 36 37 38 39 40 41 42 43 44 45 46 47 48 49 50

000
ASUS43 KFSD 022102
RWRFSD

WEATHER ROUNDUP FOR SE SOUTH DAKOTA/SW MINNESOTA/NW IOWA
NATIONAL WEATHER SERVICE SIOUX FALLS SD
300 PM CST FRI DEC 02 2016

NOTE: "FAIR" INDICATES FEW OR NO CLOUDS BELOW 12,000 FEET WITH NO
SIGNIFICANT WEATHER AND OR OBSTRUCTIONS TO VISIBILITY.


SDZ038>040-050-052>070-022200-
SOUTHEAST SOUTH DAKOTA

CITY           SKY/WX    TMP DP  RH WIND       PRES   REMARKS
CHAMBERLAIN    CLOUDY    33  30  88 CALM      30.27S
HURON          CLOUDY    31  23  72 NW3       30.28S
MADISON        CLOUDY    28  27  93 NW10      30.26R WCI  19
MITCHELL       CLOUDY    32  26  78 NW6       30.30S WCI  26
SIOUX FALLS    CLOUDY    32  25  75 NW10      30.27R WCI  24
WINNER         CLOUDY    35  26  69 NW3       30.25F
YANKTON        CLOUDY    36  25  64 NW9       30.29R
$$

MNZ071-072-080-081-089-090-097-098-022200-
SOUTHWEST MINNESOTA

CITY           SKY/WX    TMP DP  RH WIND       PRES   REMARKS
FAIRMONT       CLOUDY    30  25  81 NW10      30.28R WCI  21
JACKSON        CLOUDY    30  23  74 NW10      30.27R WCI  21
LUVERNE        CLOUDY    32  23  69 W10       30.28R WCI  24
MARSHALL       CLOUDY    29  23  78 N7        30.28R WCI  22
MONTEVIDEO     CLOUDY    28  27  93 N7        30.29R WCI  21
PIPESTONE      CLOUDY    30  23  74 W13       30.24S WCI  20
REDWOOD FALLS  CLOUDY    30  20  66 W9        30.28R WCI  22
TRACY          CLOUDY    31  26  81 NW6       30.27R WCI  25
WINDOM         CLOUDY    30  25  80 CALM      30.26S
WORTHINGTON    CLOUDY    31  24  75 W10       30.27R WCI  22
$$

IAZ001>003-012>014-020>022-031-032-NEZ013-014-SDZ071-022200-
NORTHWEST IOWA

CITY           SKY/WX    TMP DP  RH WIND       PRES   REMARKS
CHEROKEE       CLOUDY    35  29  80 CALM      30.30R
DENISON        CLOUDY    37  32  81 W5        30.26F
ESTHERVILLE    CLOUDY    30  26  85 NW10      30.28R WCI  21
LE MARS        CLOUDY    36  30  80 CALM      30.31R
ORANGE CITY    CLOUDY    34  28  80 CALM      30.28R
SHELDON        CLOUDY    34  28  80 NW8       30.26R WCI  27
SIOUX CITY     CLOUDY    40  30  67 W6        30.29F
SPENCER        CLOUDY    33  24  69 NW15      30.28R WCI  23
STORM LAKE       N/A     36  28  75 NW5       30.28R
$$

ABBREVIATIONS USED IN REMARKS
   TC - TEMPERATURE IN CELSIUS
  WCI - WIND CHILL INDEX
   HX - HEAT INDEX
  VSB - VISIBILITY





USA.gov is the U.S. government's official web portal to all federal, state and local government web resources and services.